Погода в Владимире

Хотите узнать прогноз погоды в Владимире? Тогда Вам сюда: Погода в Владимире

Поиск расширенной информации на нашем сайте:

Полезная информация:

Новости сайта



02.01.2020
Опубликован Долгосрочный прогноз погоды по городам России и ближнего зарубежья на январь 2020 года.
Карты: Прогноз на январь и февраль 2020 года, Сравнение прогнозируемой аномалии приземной температуры воздуха на январь 2020 года по разным моделям.




Погода в Владимире - сегодня

Время (UTC), дата Ветер
(°,м/с) 
Видим.   Явления Облачность Т
(°С)
Тd
(°С)
f(%) Тe
(°С)
Pmin
(гПа)
dP
(гПа)
Po
(мм)
O2
(г/м3)
Тmin Tmax R s Состояние
почвы
15 27.03.20 тихо ()   10 км    9/0 средняя, верхняя 
[Ac trans|Ci fib]
+12.6 -3.1 33 +13  1030.7  -1.4  757  292    +14.8       
18 27.03.20 тихо ()   10 км    6/0 средняя, верхняя 
[Ac trans|Ci fib]
+4.8 -2.3 60 +5  1030.4  -0.9  757  300           
21 27.03.20 тихо ()   10 км    6/0 средняя, верхняя 
[Ac trans|Ci fib]
+2.4 -2.1 72 +2  1030  -0.5  756  302           
00 28.03.20 200 (Ю) 10 км    9/0 средняя, верхняя 
[Ac trans|Ci fib]
+1.5 -2.4 75 +2  1029.1  -0.9  756  303           
03 28.03.20 тихо ()   10 км    9/0 средняя, верхняя 
[Ac trans|Ci fib]
+0.1 -3.2 78 1027.9  -1.3  755  304  +0.1        влажная 
06 28.03.20 230 (ЮЗ) 10 км    4/0 верхняя 
[Ci fib]
+9.3 -1.3 47 +9  1026.3  -0.9  754  294           
09 28.03.20 240 (ЮЗ) 10 км    5/0 верхняя 
[Ci fib]
+14.8 -1.5 33 +15  1023.8  -2  752  288           
12 28.03.20 180 (Ю) 10 км    5/0 верхняя 
[Ci fib]
+16.8 -3.4 25 +17  1020.5  -3.1  750  285           
15 28.03.20 190 (Ю) 10 км    8/0 верхняя 
[Ci fib]
+15.6 -3.3 27 +16  1017.9  -2.6  748  285    +17       
18 28.03.20 200 (Ю) 10 км    4/0 верхняя 
[Ci fib]
+11.9 -3.7 33 +12  1017.3  -0.8  748  289           
21 28.03.20 190 (Ю) 10 км    ясно 
+8.9 -3.2 42 +8  1016.5  -1  747  292           
00 29.03.20 200 (Ю) 10 км    ясно 
+7.4 -2.2 51 +6  1014.9  -1.7  746  293           
03 29.03.20 200 (Ю) 10 км    3/0 верхняя 
[Ci fib]
+5.6 -2.5 56 +5  1013.3  -1.7  744  294  +5.6        влажная 
06 29.03.20 200 (Ю) 10 км    8/0 верхняя 
[Ci fib]
+7.9 -1.8 50 +7  1012.1  -1  743  291  +5.3         
09 29.03.20 200 (Ю) 10 км    8/0 средняя, верхняя 
[Ac trans|Ci fib]
+14 -1.9 33 +14  1010.2  -1.4  742  285           
12 29.03.20 220 (ЮЗ) 5{10}  10 км    8/0 средняя, верхняя 
[Ac trans|Ci fib]
+15.3 -1.2 32 +15  1008.2  -1.8  741  283           
15 29.03.20 200 (Ю) 10 км    8/0 средняя, верхняя 
[Ac trans|Ci fib]
+14.5 -3.1 29 +15  1006.7  -1.5  740  283    +15.5       
18 29.03.20 180 (Ю) 10 км    9/0 средняя, верхняя 
[Ac trans|Ci fib]
+11.7 -4.4 32 +13  1006.4  -0.4  740  286           
21 29.03.20 190 (Ю) 5{10}  10 км    9/0 средняя, верхняя 
[Ac trans|Ci fib]
+12.6 -4.1 31 +12  1005.4  -0.9  739  285           
00 30.03.20 040 (СВ) 1{11}  10 км    9/0 средняя, верхняя 
[Ac trans|Ci fib]
+5.6 -1.1 62 +6  1005.1  -0.8  738  292           
03 30.03.20 340 (С) 10 км    9/0 средняя, верхняя 
[Ac trans|Ci fib]
+1.8 -1.3 80 1005.5  738  296  +1.8        влажная 
06 30.03.20 350 (С) 6-10{10}  10 км  в посл. час ливневой дождь  10/8 240 м кучево-дожд., средняя 
[Cb cap|Ac As]
+1.3 -1.1 84 -2  1006.2  0.7  739  296  +1.3         
09 30.03.20 360 (С) 6{10}  10 км  {ливн. осадки}  10/8 270 м средняя 
[Sc|Ac As]
+1.7 -1.9 77 -1  1007  0.8  739  296           
12 30.03.20 010 (С) 6{11}  10 км  {ливн. осадки}  10/8 450 м средняя 
[Sc|Ac As]
+1.8 -3.1 70 -1  1008  740  297           
15 30.03.20 020 (С) 6-10{12}  10 км    10/8 570 м средняя 
[Sc|Ac As]
-0.2 -4.1 75 -4  1008.5  0.4  740  299    +2.2  0.0     
Время (UTC), дата Ветер
(°,м/с) 
Видим.   Явления Облачность Т
(°С)
Тd
(°С)
f(%) Тe
(°С)
Pmin
(гПа)
dP
(гПа)
Po
(мм)
O2
(г/м3)
Тmin Tmax R s Состояние
почвы

Для получения пояснительной информации подведите курсор к названию столбца.

ПОГОДА в Владимире - архив

Всё, что Вы хотите узнать о погоде в Владимире - удобно и подробно!

Выберите нужную дату (начиная с 1 января 2019* года) и нажмите кнопку "Найти".
Будут отображены архивные сводки погоды по пункту Владимир, начиная с указанной даты.


Отображать данные в формате CSV (для использования в таблицах Excel)


Внимание! Наш архив погоды предназначен исключительно для личного некоммерческого использования в познавательных целях. Если Вам необходимы официальные справки о состоянии погоды (для производственных, юридических, коммерческих и т.п. целей), обращайтесь в органы Росгидромета.

*Примечание: данная дата относится к архиву по метеостанциям СССР (Россия, СНГ, Балтия).
Архив по метеостанциям Зарубежной Европы и Азии (кроме Китая) хранится 10 дней, по другим регионам земного шара (Китай, Африка, Америка, Австралия, Океания) - 1 день.

Владимир - район местоположения метеостанции


Название, широта, долгота, высота метеостанции:
Владимир 56.1°ш. 40.3°д. 172 м над ур. моря [Российская Федерация]

Дополнительная информация

В oтличие oт бoльшинства пoгoдных сайтoв мы публикуем пoдрoбную метеoинфoрмацию в детальнoм прoфессиoнальнoм фoрмате.

Характеристики температуры и влажнoсти вoздуха измеряются на высoте 2 м в тени вдали oт зданий и деревьев.
Скoрoсть ветра измеряется на высoте 10 м (на урoвне рoста челoвека скoрoсть ветра ниже в 1.5-2 раза). Если метеoстанция нахoдится в гoрoде или в лесу, тo скoрoсть ветра занижена на 2-4 м/с пo сравнению с oткрытым местoм. Скoрoсть ветра над акватoриями крупных рек и oзёр, а также на вершинах хoлмoв на 2-5 м/с выше, чем в oбычных услoвиях.
Атмoсфернoе давление в разных тoчках местнoсти мoжет значительнo oтличаться oт давления на метеoстанции, в зависимoсти oт услoвий рельефа (при пoдъёме на 10 м давление пoнижается примернo на 1 мм рт.ст.).